Time,TemperatureF,DewpointF,PressureIn,WindDirection,WindDirectionDegrees,WindSpeedMPH,WindSpeedGustMPH,Humidity,HourlyPrecipIn,Conditions,Clouds,dailyrainin,SolarRadiationWatts/m^2,SoftwareType,DateUTC
2013-04-22 00:00:00,55.9,51.2,29.97,SSW,202,0.0,0.0,84,0.00,,,0.00,0.00,VWS V14.01,2013-04-22 07:00:00,
2013-04-22 00:02:00,55.9,51.5,29.97,SSW,202,0.0,0.0,85,0.00,,,0.00,0.00,VWS V14.01,2013-04-22 07:02:00,
2013-04-22 00:07:00,55.9,50.9,30.00,SSW,202,0.0,0.0,83,0.00,,,0.00,0.00,VWS V14.01,2013-04-22 07:07:00,
2013-04-22 00:12:00,55.6,50.8,30.00,SSW,202,0.0,0.0,84,0.00,,,0.00,0.00,VWS V14.01,2013-04-22 07:12:00,
2013-04-22 00:15:00,55.6,51.2,30.00,SSW,202,0.0,0.0,85,0.00,,,0.00,0.00,VWS V14.01,2013-04-22 07:15:00,
2013-04-22 00:18:00,55.6,51.5,30.00,SSW,202,0.0,0.0,86,0.00,,,0.00,0.00,VWS V14.01,2013-04-22 07:18:00,
2013-04-22 00:23:00,55.6,51.5,29.97,SSW,202,0.0,0.0,86,0.00,,,0.00,0.00,VWS V14.01,2013-04-22 07:23:00,
2013-04-22 00:28:00,55.6,50.5,29.97,SSW,202,0.0,0.0,83,0.00,,,0.00,0.00,VWS V14.01,2013-04-22 07:28:00,
2013-04-22 00:30:00,55.6,51.2,29.97,SSW,202,0.0,0.0,85,0.00,,,0.00,0.00,VWS V14.01,2013-04-22 07:30:00,
2013-04-22 00:33:00,55.4,51.3,29.97,SSW,202,0.0,0.0,86,0.00,,,0.00,0.00,VWS V14.01,2013-04-22 07:33:00,
2013-04-22 00:38:00,55.4,51.0,30.00,SSW,202,0.0,0.0,85,0.00,,,0.00,0.00,VWS V14.01,2013-04-22 07:38:00,
2013-04-22 00:43:00,55.4,51.6,30.00,SSW,202,0.0,0.0,87,0.00,,,0.00,0.00,VWS V14.01,2013-04-22 07:43:00,
2013-04-22 00:45:00,55.4,51.6,30.00,SSW,202,0.0,0.0,87,0.00,,,0.00,0.00,VWS V14.01,2013-04-22 07:45:00,
2013-04-22 00:48:00,55.4,51.6,30.00,SSW,202,0.0,0.0,87,0.00,,,0.00,0.00,VWS V14.01,2013-04-22 07:48:00,
2013-04-22 00:53:00,55.2,51.4,30.00,SSW,202,0.0,0.0,87,0.00,,,0.00,0.00,VWS V14.01,2013-04-22 07:53:00,
2013-04-22 00:58:00,55.2,50.8,30.00,SSW,202,0.0,0.0,85,0.00,,,0.00,0.00,VWS V14.01,2013-04-22 07:58:00,
2013-04-22 01:00:00,55.2,51.4,30.00,SSW,202,0.0,0.0,87,0.00,,,0.00,0.00,VWS V14.01,2013-04-22 08:00:00,
2013-04-22 01:03:00,55.0,50.9,30.00,SSW,202,0.0,0.0,86,0.00,,,0.00,0.00,VWS V14.01,2013-04-22 08:03:00,
2013-04-22 01:08:00,54.9,51.1,29.97,SSW,202,0.0,0.0,87,0.00,,,0.00,0.00,VWS V14.01,2013-04-22 08:08:00,
2013-04-22 01:13:00,54.9,51.1,29.97,SSW,202,0.0,0.0,87,0.00,,,0.00,0.00,VWS V14.01,2013-04-22 08:13:00,
2013-04-22 01:15:00,54.9,51.1,29.97,SSW,202,0.0,0.0,87,0.00,,,0.00,0.00,VWS V14.01,2013-04-22 08:15:00,
2013-04-22 01:18:00,54.9,51.4,29.97,SSW,202,0.0,0.0,88,0.00,,,0.00,0.00,VWS V14.01,2013-04-22 08:18:00,
2013-04-22 01:23:00,54.7,51.2,29.97,SSW,202,0.0,0.0,88,0.00,,,0.00,0.00,VWS V14.01,2013-04-22 08:23:00,
2013-04-22 01:28:00,54.7,50.9,29.97,SSW,202,0.0,0.0,87,0.00,,,0.00,0.00,VWS V14.01,2013-04-22 08:28:00,
2013-04-22 01:30:00,54.7,50.6,29.97,SSW,202,0.0,0.0,86,0.00,,,0.00,0.00,VWS V14.01,2013-04-22 08:30:00,
2013-04-22 01:33:00,54.5,50.4,29.97,SSW,202,0.0,0.0,86,0.00,,,0.00,0.00,VWS V14.01,2013-04-22 08:33:00,
2013-04-22 01:38:00,54.3,50.2,29.97,SSW,202,0.0,0.0,86,0.00,,,0.00,0.00,VWS V14.01,2013-04-22 08:38:00,
2013-04-22 01:43:00,54.3,50.5,29.97,SSW,202,0.0,0.0,87,0.00,,,0.00,0.00,VWS V14.01,2013-04-22 08:43:00,
2013-04-22 01:45:00,54.3,50.5,29.97,SSW,202,0.0,0.0,87,0.00,,,0.00,0.00,VWS V14.01,2013-04-22 08:45:00,
2013-04-22 01:48:00,54.3,50.5,29.97,SSW,202,0.0,0.0,87,0.00,,,0.00,0.00,VWS V14.01,2013-04-22 08:48:00,
2013-04-22 01:53:00,54.5,50.7,29.97,SSW,202,0.0,0.0,87,0.00,,,0.00,0.00,VWS V14.01,2013-04-22 08:53:00,
2013-04-22 01:58:00,54.5,50.7,29.97,SSW,202,0.0,0.0,87,0.00,,,0.00,0.00,VWS V14.01,2013-04-22 08:58:00,
2013-04-22 02:00:00,54.7,50.6,29.97,SSW,202,0.0,0.0,86,0.00,,,0.00,0.00,VWS V14.01,2013-04-22 09:00:00,
2013-04-22 02:04:00,54.5,50.4,29.97,SSW,202,0.0,0.0,86,0.00,,,0.00,0.00,VWS V14.01,2013-04-22 09:04:00,
2013-04-22 02:09:00,54.5,50.4,29.97,SSW,202,0.0,0.0,86,0.00,,,0.00,0.00,VWS V14.01,2013-04-22 09:09:00,
2013-04-22 02:14:00,54.7,50.9,29.97,SSW,202,0.0,0.0,87,0.00,,,0.00,0.00,VWS V14.01,2013-04-22 09:14:00,
2013-04-22 02:15:00,54.5,50.4,29.97,SSW,202,0.0,0.0,86,0.00,,,0.00,0.00,VWS V14.01,2013-04-22 09:15:00,
2013-04-22 02:19:00,54.5,50.4,29.97,SSW,202,0.0,0.0,86,0.00,,,0.00,0.00,VWS V14.01,2013-04-22 09:19:00,
2013-04-22 02:24:00,54.5,50.1,29.97,SSW,202,0.0,0.0,85,0.00,,,0.00,0.00,VWS V14.01,2013-04-22 09:24:00,
2013-04-22 02:29:00,54.5,50.4,29.97,SSW,202,0.0,0.0,86,0.00,,,0.00,0.00,VWS V14.01,2013-04-22 09:29:00,
2013-04-22 02:30:00,54.5,50.1,29.97,SSW,202,0.0,0.0,85,0.00,,,0.00,0.00,VWS V14.01,2013-04-22 09:30:00,
2013-04-22 02:34:00,54.7,50.0,29.97,SSW,202,0.0,0.0,84,0.00,,,0.00,0.00,VWS V14.01,2013-04-22 09:34:00,
2013-04-22 02:39:00,54.5,49.8,29.94,SSW,202,0.0,0.0,84,0.00,,,0.00,0.00,VWS V14.01,2013-04-22 09:39:00,
2013-04-22 02:44:00,54.7,50.3,29.94,SSW,202,0.0,0.0,85,0.00,,,0.00,0.00,VWS V14.01,2013-04-22 09:44:00,
2013-04-22 02:45:00,54.7,50.3,29.94,SSW,202,0.0,0.0,85,0.00,,,0.00,0.00,VWS V14.01,2013-04-22 09:45:00,
2013-04-22 02:49:00,55.0,50.9,29.94,SSW,202,0.0,0.0,86,0.00,,,0.00,0.00,VWS V14.01,2013-04-22 09:49:00,
2013-04-22 02:54:00,55.4,50.7,29.94,SSW,202,0.0,0.0,84,0.00,,,0.00,0.00,VWS V14.01,2013-04-22 09:54:00,
2013-04-22 02:59:00,55.9,50.5,29.94,SSW,202,0.0,0.0,82,0.00,,,0.00,0.00,VWS V14.01,2013-04-22 09:59:00,
2013-04-22 03:00:00,55.9,50.5,29.94,SW,225,0.0,0.0,82,0.00,,,0.00,0.00,VWS V14.01,2013-04-22 10:00:00,
2013-04-22 03:04:00,56.1,50.4,29.94,SSW,202,0.0,0.0,81,0.00,,,0.00,0.00,VWS V14.01,2013-04-22 10:04:00,
2013-04-22 03:09:00,56.7,50.6,29.94,SSW,202,3.6,3.8,80,0.00,,,0.00,0.00,VWS V14.01,2013-04-22 10:09:00,
2013-04-22 03:14:00,57.0,50.6,29.94,SSW,202,2.9,4.3,79,0.00,,,0.00,0.00,VWS V14.01,2013-04-22 10:14:00,
2013-04-22 03:15:00,57.0,50.6,29.94,SSW,202,3.4,4.3,79,0.00,,,0.00,0.00,VWS V14.01,2013-04-22 10:15:00,
2013-04-22 03:19:00,57.6,50.1,29.94,SSW,202,2.5,4.0,76,0.00,,,0.00,0.00,VWS V14.01,2013-04-22 10:19:00,
2013-04-22 03:24:00,57.0,50.9,29.94,SSW,202,2.2,4.0,80,0.00,,,0.00,0.00,VWS V14.01,2013-04-22 10:24:00,
2013-04-22 03:29:00,56.7,51.2,29.94,SSW,202,2.2,4.0,82,0.00,,,0.00,0.00,VWS V14.01,2013-04-22 10:29:00,
2013-04-22 03:30:00,56.7,50.9,29.94,SSW,202,3.1,4.0,81,0.00,,,0.00,0.00,VWS V14.01,2013-04-22 10:30:00,
2013-04-22 03:34:00,57.0,51.3,29.94,SSW,202,2.9,3.4,81,0.00,,,0.00,0.00,VWS V14.01,2013-04-22 10:34:00,
2013-04-22 03:39:00,57.0,51.3,29.94,South,180,2.2,3.4,81,0.00,,,0.00,0.00,VWS V14.01,2013-04-22 10:39:00,
2013-04-22 03:44:00,56.7,51.2,29.94,South,180,0.0,3.4,82,0.00,,,0.00,0.00,VWS V14.01,2013-04-22 10:44:00,
2013-04-22 03:45:00,56.7,51.2,29.94,South,180,1.6,3.4,82,0.00,,,0.00,0.00,VWS V14.01,2013-04-22 10:45:00,
2013-04-22 03:49:00,56.7,51.2,29.94,South,180,1.3,2.5,82,0.00,,,0.00,0.00,VWS V14.01,2013-04-22 10:49:00,
2013-04-22 03:54:00,56.7,51.2,29.94,South,180,1.1,2.5,82,0.00,,,0.00,0.00,VWS V14.01,2013-04-22 10:54:00,
2013-04-22 03:59:00,56.8,50.7,29.94,South,180,1.6,2.5,80,0.00,,,0.00,0.00,VWS V14.01,2013-04-22 10:59:00,
2013-04-22 04:00:00,56.8,50.7,29.94,SW,225,1.3,2.5,80,0.00,,,0.00,0.00,VWS V14.01,2013-04-22 11:00:00,
2013-04-22 04:04:00,56.8,50.7,29.94,SSW,202,2.0,2.5,80,0.00,,,0.00,0.00,VWS V14.01,2013-04-22 11:04:00,
2013-04-22 04:09:00,56.7,50.6,29.94,SSW,202,2.7,2.9,80,0.00,,,0.00,0.00,VWS V14.01,2013-04-22 11:09:00,
2013-04-22 04:14:00,56.7,51.2,29.94,SSW,202,0.0,3.1,82,0.00,,,0.00,0.00,VWS V14.01,2013-04-22 11:14:00,
2013-04-22 04:15:00,56.7,51.2,29.94,SSW,202,0.0,3.1,82,0.00,,,0.00,0.00,VWS V14.01,2013-04-22 11:15:00,
2013-04-22 04:19:00,56.7,50.9,29.94,SSW,202,2.5,2.5,81,0.00,,,0.00,0.00,VWS V14.01,2013-04-22 11:19:00,
2013-04-22 04:24:00,56.7,50.9,29.94,SSW,202,0.0,2.5,81,0.00,,,0.00,0.00,VWS V14.01,2013-04-22 11:24:00,
2013-04-22 04:29:00,56.7,51.2,29.94,SSW,202,0.0,2.5,82,0.00,,,0.00,0.00,VWS V14.01,2013-04-22 11:29:00,
2013-04-22 04:30:00,56.7,51.2,29.94,SSW,202,0.0,2.5,82,0.00,,,0.00,0.00,VWS V14.01,2013-04-22 11:30:00,
2013-04-22 04:34:00,56.7,50.9,29.94,SSW,202,0.0,2.2,81,0.00,,,0.00,0.00,VWS V14.01,2013-04-22 11:34:00,
2013-04-22 04:39:00,56.7,50.9,29.94,SSW,202,0.0,2.2,81,0.00,,,0.00,0.00,VWS V14.01,2013-04-22 11:39:00,
2013-04-22 04:44:00,56.7,50.9,29.94,SSW,202,1.6,2.7,81,0.00,,,0.00,0.00,VWS V14.01,2013-04-22 11:44:00,
2013-04-22 04:45:00,56.7,50.9,29.94,SSW,202,1.1,2.7,81,0.00,,,0.00,0.00,VWS V14.01,2013-04-22 11:45:00,
2013-04-22 04:49:00,56.5,51.1,29.94,SSW,202,0.0,2.0,82,0.00,,,0.00,0.00,VWS V14.01,2013-04-22 11:49:00,
2013-04-22 04:54:00,56.8,50.7,29.94,SSW,202,1.6,2.2,80,0.00,,,0.00,0.00,VWS V14.01,2013-04-22 11:54:00,
2013-04-22 04:59:00,56.8,50.7,29.94,SSW,202,1.1,2.5,80,0.00,,,0.00,0.00,VWS V14.01,2013-04-22 11:59:00,
2013-04-22 05:00:00,56.8,50.7,29.94,SSW,202,1.1,2.5,80,0.00,,,0.00,0.00,VWS V14.01,2013-04-22 12:00:00,
2013-04-22 05:04:00,56.8,50.7,29.94,SSW,202,2.0,2.5,80,0.00,,,0.00,0.00,VWS V14.01,2013-04-22 12:04:00,
2013-04-22 05:10:00,57.0,49.9,29.91,SSW,202,2.5,2.9,77,0.00,,,0.00,0.00,VWS V14.01,2013-04-22 12:10:00,
2013-04-22 05:15:00,57.0,50.9,29.91,SSW,202,2.0,2.9,80,0.00,,,0.00,0.00,VWS V14.01,2013-04-22 12:15:00,
2013-04-22 05:20:00,57.2,49.7,29.91,SSW,202,2.5,2.7,76,0.00,,,0.00,0.00,VWS V14.01,2013-04-22 12:20:00,
2013-04-22 05:25:00,57.2,49.7,29.94,SW,225,1.6,2.7,76,0.00,,,0.00,0.00,VWS V14.01,2013-04-22 12:25:00,
2013-04-22 05:30:00,57.2,49.7,29.94,SSW,202,2.2,2.9,76,0.00,,,0.00,0.00,VWS V14.01,2013-04-22 12:30:00,
2013-04-22 05:35:00,57.6,49.7,29.94,SSW,202,2.5,3.1,75,0.00,,,0.00,0.00,VWS V14.01,2013-04-22 12:35:00,
2013-04-22 05:40:00,57.6,50.4,29.94,SSW,202,0.0,3.1,77,0.00,,,0.00,0.00,VWS V14.01,2013-04-22 12:40:00,
2013-04-22 05:45:00,57.2,50.4,29.94,SSW,202,1.3,3.1,78,0.00,,,0.00,0.00,VWS V14.01,2013-04-22 12:45:00,
2013-04-22 05:50:00,57.4,49.9,29.94,SW,225,2.0,2.5,76,0.00,,,0.00,0.00,VWS V14.01,2013-04-22 12:50:00,
2013-04-22 05:55:00,57.4,49.9,29.91,South,180,2.0,2.5,76,0.00,,,0.00,0.00,VWS V14.01,2013-04-22 12:55:00,
2013-04-22 06:00:00,57.4,50.2,29.91,SSW,202,2.0,2.5,77,0.00,,,0.00,0.00,VWS V14.01,2013-04-22 13:00:00,
2013-04-22 06:05:00,57.2,50.8,29.91,SSW,202,2.0,2.2,79,0.00,,,0.00,0.00,VWS V14.01,2013-04-22 13:05:00,
2013-04-22 06:10:00,57.4,50.6,29.94,SSW,202,2.5,2.7,78,0.00,,,0.00,0.00,VWS V14.01,2013-04-22 13:10:00,
2013-04-22 06:15:00,57.4,50.6,29.94,South,180,0.0,0.0,78,0.00,,,0.00,0.00,VWS V14.01,2013-04-22 13:15:00,
2013-04-22 06:20:00,57.2,50.4,29.94,SSW,202,2.2,2.7,78,0.00,,,0.00,0.00,VWS V14.01,2013-04-22 13:20:00,
2013-04-22 06:25:00,57.4,50.6,29.94,SSW,202,1.6,2.7,78,0.00,,,0.00,0.00,VWS V14.01,2013-04-22 13:25:00,
2013-04-22 06:30:00,57.4,50.9,29.94,SSW,202,2.2,2.2,79,0.00,,,0.00,0.00,VWS V14.01,2013-04-22 13:30:00,
2013-04-22 06:35:00,57.4,51.3,29.94,SSW,202,0.0,2.5,80,0.00,,,0.00,0.00,VWS V14.01,2013-04-22 13:35:00,
2013-04-22 06:40:00,57.6,51.5,29.94,SSW,202,0.0,2.5,80,0.00,,,0.00,0.00,VWS V14.01,2013-04-22 13:40:00,
2013-04-22 06:45:00,57.7,51.6,29.94,SW,225,1.3,1.6,80,0.00,,,0.00,0.00,VWS V14.01,2013-04-22 13:45:00,
2013-04-22 06:50:00,57.7,52.3,29.94,SSW,202,0.0,2.0,82,0.00,,,0.00,0.00,VWS V14.01,2013-04-22 13:50:00,
2013-04-22 06:55:00,57.6,52.4,29.94,South,180,0.0,2.0,83,0.00,,,0.00,0.00,VWS V14.01,2013-04-22 13:55:00,
2013-04-22 07:00:00,58.3,52.2,29.94,South,180,1.3,2.0,80,0.00,,,0.00,0.00,VWS V14.01,2013-04-22 14:00:00,
2013-04-22 07:05:00,59.0,52.5,29.94,SSW,202,2.0,2.9,79,0.00,,,0.00,0.00,VWS V14.01,2013-04-22 14:05:00,
2013-04-22 07:10:00,59.4,52.9,29.94,South,180,1.6,2.9,79,0.00,,,0.00,0.00,VWS V14.01,2013-04-22 14:10:00,
2013-04-22 07:15:00,59.7,52.2,29.94,SSW,202,1.3,1.3,76,0.00,,,0.00,0.00,VWS V14.01,2013-04-22 14:15:00,
2013-04-22 07:20:00,60.1,52.1,29.94,SSW,202,0.0,2.0,75,0.00,,,0.00,0.00,VWS V14.01,2013-04-22 14:20:00,
2013-04-22 07:25:00,60.4,52.5,29.94,South,180,0.0,2.0,75,0.00,,,0.00,0.00,VWS V14.01,2013-04-22 14:25:00,
2013-04-22 07:30:00,61.2,52.5,29.94,South,180,0.0,0.0,73,0.00,,,0.00,0.00,VWS V14.01,2013-04-22 14:30:00,
2013-04-22 07:35:00,61.2,52.5,29.94,South,180,0.0,0.0,73,0.00,,,0.00,0.00,VWS V14.01,2013-04-22 14:35:00,
2013-04-22 07:40:00,61.3,53.0,29.94,East,90,0.0,0.0,74,0.00,,,0.00,0.00,VWS V14.01,2013-04-22 14:40:00,
2013-04-22 07:45:00,61.2,52.8,29.94,East,90,0.0,0.0,74,0.00,,,0.00,0.00,VWS V14.01,2013-04-22 14:45:00,
2013-04-22 07:50:00,61.3,52.6,29.94,East,90,0.0,0.0,73,0.00,,,0.00,0.00,VWS V14.01,2013-04-22 14:50:00,
2013-04-22 07:55:00,62.4,54.4,29.94,East,90,0.0,0.0,75,0.00,,,0.00,0.00,VWS V14.01,2013-04-22 14:55:00,
2013-04-22 08:00:00,62.8,54.4,29.94,East,90,0.0,0.0,74,0.00,,,0.00,0.00,VWS V14.01,2013-04-22 15:00:00,
2013-04-22 08:05:00,64.0,55.6,29.94,East,90,0.0,0.0,74,0.00,,,0.00,0.00,VWS V14.01,2013-04-22 15:05:00,
2013-04-22 08:10:00,64.4,54.8,29.97,East,90,0.0,0.0,71,0.00,,,0.00,0.00,VWS V14.01,2013-04-22 15:10:00,
2013-04-22 08:15:00,64.6,53.8,29.97,SSE,158,0.0,0.0,68,0.00,,,0.00,0.00,VWS V14.01,2013-04-22 15:15:00,
2013-04-22 08:20:00,65.1,54.3,29.97,SSE,158,0.0,0.0,68,0.00,,,0.00,0.00,VWS V14.01,2013-04-22 15:20:00,
2013-04-22 08:25:00,66.0,55.6,29.97,NE,45,0.0,0.0,69,0.00,,,0.00,0.00,VWS V14.01,2013-04-22 15:25:00,
2013-04-22 08:30:00,65.8,56.2,29.97,ESE,112,0.0,0.0,71,0.00,,,0.00,0.00,VWS V14.01,2013-04-22 15:30:00,
2013-04-22 08:35:00,65.3,56.0,29.97,ESE,112,0.0,2.0,72,0.00,,,0.00,0.00,VWS V14.01,2013-04-22 15:35:00,
2013-04-22 08:40:00,65.8,56.6,29.97,ESE,112,0.0,2.0,72,0.00,,,0.00,0.00,VWS V14.01,2013-04-22 15:40:00,
2013-04-22 08:45:00,66.0,56.7,29.97,ESE,112,0.0,0.0,72,0.00,,,0.00,0.00,VWS V14.01,2013-04-22 15:45:00,
2013-04-22 08:50:00,66.4,56.3,29.97,ESE,112,0.0,0.0,70,0.00,,,0.00,0.00,VWS V14.01,2013-04-22 15:50:00,
2013-04-22 08:55:00,67.1,56.6,29.97,ESE,112,0.0,0.0,69,0.00,,,0.00,0.00,VWS V14.01,2013-04-22 15:55:00,
2013-04-22 09:00:00,68.0,56.7,29.97,ESE,112,0.0,0.0,67,0.00,,,0.00,0.00,VWS V14.01,2013-04-22 16:00:00,
2013-04-22 09:05:00,68.2,56.0,29.97,ESE,112,0.0,0.0,65,0.00,,,0.00,0.00,VWS V14.01,2013-04-22 16:05:00,
2013-04-22 09:10:00,68.9,56.7,29.97,ESE,112,0.0,0.0,65,0.00,,,0.00,0.00,VWS V14.01,2013-04-22 16:10:00,
2013-04-22 09:15:00,69.3,56.6,29.97,ESE,112,0.0,0.0,64,0.00,,,0.00,0.00,VWS V14.01,2013-04-22 16:15:00,
2013-04-22 09:20:00,69.8,57.1,29.97,ESE,112,0.0,0.0,64,0.00,,,0.00,0.00,VWS V14.01,2013-04-22 16:20:00,
2013-04-22 09:26:00,70.3,57.2,29.97,East,90,0.0,2.2,63,0.00,,,0.00,0.00,VWS V14.01,2013-04-22 16:26:00,
2013-04-22 09:30:00,70.5,57.8,29.97,East,90,0.0,2.2,64,0.00,,,0.00,0.00,VWS V14.01,2013-04-22 16:30:00,
2013-04-22 09:31:00,70.5,57.3,29.97,East,90,0.0,0.0,63,0.00,,,0.00,0.00,VWS V14.01,2013-04-22 16:31:00,
2013-04-22 09:36:00,71.1,57.4,29.97,East,90,1.6,1.6,62,0.00,,,0.00,0.00,VWS V14.01,2013-04-22 16:36:00,
2013-04-22 09:41:00,71.2,57.6,29.97,East,90,0.0,2.2,62,0.00,,,0.00,0.00,VWS V14.01,2013-04-22 16:41:00,
2013-04-22 09:45:00,71.6,57.5,29.97,East,90,0.0,2.2,61,0.00,,,0.00,0.00,VWS V14.01,2013-04-22 16:45:00,
2013-04-22 09:46:00,71.6,57.0,29.97,NE,45,0.0,0.0,60,0.00,,,0.00,0.00,VWS V14.01,2013-04-22 16:46:00,
2013-04-22 09:51:00,71.8,57.2,29.97,East,90,0.0,0.0,60,0.00,,,0.00,0.00,VWS V14.01,2013-04-22 16:51:00,
2013-04-22 09:56:00,72.0,56.9,30.00,ENE,68,0.9,2.9,59,0.00,,,0.00,0.00,VWS V14.01,2013-04-22 16:56:00,
2013-04-22 10:00:00,72.5,56.9,30.00,East,90,2.7,2.9,58,0.00,,,0.00,0.00,VWS V14.01,2013-04-22 17:00:00,
2013-04-22 10:01:00,72.5,56.9,30.00,NE,45,2.0,2.9,58,0.00,,,0.00,0.00,VWS V14.01,2013-04-22 17:01:00,
2013-04-22 10:06:00,73.6,54.9,30.00,NE,45,2.9,3.1,52,0.00,,,0.00,0.00,VWS V14.01,2013-04-22 17:06:00,
2013-04-22 10:11:00,73.4,54.7,30.00,ENE,68,1.6,3.1,52,0.00,,,0.00,0.00,VWS V14.01,2013-04-22 17:11:00,
2013-04-22 10:15:00,73.2,54.6,30.00,East,90,2.2,3.1,52,0.00,,,0.00,0.00,VWS V14.01,2013-04-22 17:15:00,
2013-04-22 10:16:00,73.2,55.1,30.00,East,90,0.0,2.2,53,0.00,,,0.00,0.00,VWS V14.01,2013-04-22 17:16:00,
2013-04-22 10:21:00,74.1,54.9,30.00,ENE,68,0.0,2.9,51,0.00,,,0.00,0.00,VWS V14.01,2013-04-22 17:21:00,
2013-04-22 10:26:00,74.3,54.5,30.00,East,90,0.0,2.9,50,0.00,,,0.00,0.00,VWS V14.01,2013-04-22 17:26:00,
2013-04-22 10:30:00,75.4,54.9,30.00,East,90,0.9,2.9,49,0.00,,,0.00,0.00,VWS V14.01,2013-04-22 17:30:00,
2013-04-22 10:31:00,75.4,54.9,30.00,ESE,112,0.0,2.2,49,0.00,,,0.00,0.00,VWS V14.01,2013-04-22 17:31:00,
2013-04-22 10:36:00,76.1,55.0,30.00,East,90,2.0,3.6,48,0.00,,,0.00,0.00,VWS V14.01,2013-04-22 17:36:00,
2013-04-22 10:41:00,76.1,54.4,30.00,NE,45,3.4,4.0,47,0.00,,,0.00,0.00,VWS V14.01,2013-04-22 17:41:00,
2013-04-22 10:45:00,75.0,52.9,30.00,East,90,2.5,4.0,46,0.00,,,0.00,0.00,VWS V14.01,2013-04-22 17:45:00,
2013-04-22 10:46:00,74.7,52.5,30.00,ENE,68,0.0,2.5,46,0.00,,,0.00,0.00,VWS V14.01,2013-04-22 17:46:00,
2013-04-22 10:51:00,75.0,53.4,30.00,ENE,68,0.0,2.5,47,0.00,,,0.00,0.00,VWS V14.01,2013-04-22 17:51:00,
2013-04-22 10:56:00,75.9,53.1,30.00,ENE,68,0.0,2.7,45,0.00,,,0.00,0.00,VWS V14.01,2013-04-22 17:56:00,
2013-04-22 11:00:00,76.3,52.8,30.00,East,90,0.0,2.7,44,0.00,,,0.00,0.00,VWS V14.01,2013-04-22 18:00:00,
2013-04-22 11:01:00,76.5,51.0,30.00,East,90,2.5,2.7,41,0.00,,,0.00,0.00,VWS V14.01,2013-04-22 18:01:00,
2013-04-22 11:07:00,76.5,52.3,30.00,NE,45,3.1,4.0,43,0.00,,,0.00,0.00,VWS V14.01,2013-04-22 18:07:00,
2013-04-22 11:12:00,76.6,51.8,30.00,East,90,0.0,4.0,42,0.00,,,0.00,0.00,VWS V14.01,2013-04-22 18:12:00,
2013-04-22 11:15:00,77.0,52.2,30.00,East,90,0.0,4.0,42,0.00,,,0.00,0.00,VWS V14.01,2013-04-22 18:15:00,
2013-04-22 11:17:00,77.4,51.2,30.00,SE,135,0.0,2.5,40,0.00,,,0.00,0.00,VWS V14.01,2013-04-22 18:17:00,
2013-04-22 11:22:00,77.2,49.6,30.00,NE,45,2.9,4.0,38,0.00,,,0.00,0.00,VWS V14.01,2013-04-22 18:22:00,
2013-04-22 11:27:00,77.5,50.7,30.00,NE,45,2.2,5.8,39,0.00,,,0.00,0.00,VWS V14.01,2013-04-22 18:27:00,
2013-04-22 11:30:00,78.3,51.3,30.00,NE,45,5.4,5.8,39,0.00,,,0.00,0.00,VWS V14.01,2013-04-22 18:30:00,
2013-04-22 11:32:00,78.8,51.1,30.00,East,90,1.3,5.4,38,0.00,,,0.00,0.00,VWS V14.01,2013-04-22 18:32:00,
2013-04-22 11:37:00,79.2,50.7,30.00,North,0,0.0,5.4,37,0.00,,,0.00,0.00,VWS V14.01,2013-04-22 18:37:00,
2013-04-22 11:42:00,79.5,51.0,30.03,ENE,68,2.9,5.4,37,0.00,,,0.00,0.00,VWS V14.01,2013-04-22 18:42:00,
2013-04-22 11:45:00,79.3,50.1,30.03,NW,315,3.6,5.4,36,0.00,,,0.00,0.00,VWS V14.01,2013-04-22 18:45:00,
2013-04-22 11:47:00,79.3,49.3,30.03,East,90,2.7,3.6,35,0.00,,,0.00,0.00,VWS V14.01,2013-04-22 18:47:00,
2013-04-22 11:52:00,79.7,49.7,30.03,South,180,2.5,4.7,35,0.00,,,0.00,0.00,VWS V14.01,2013-04-22 18:52:00,
2013-04-22 11:57:00,80.1,50.0,30.00,NE,45,2.5,4.7,35,0.00,,,0.00,0.00,VWS V14.01,2013-04-22 18:57:00,
2013-04-22 12:00:00,80.2,50.1,30.00,ENE,68,3.4,4.7,35,0.00,,,0.00,0.00,VWS V14.01,2013-04-22 19:00:00,
2013-04-22 12:02:00,79.9,49.0,30.00,East,90,2.5,3.4,34,0.00,,,0.00,0.00,VWS V14.01,2013-04-22 19:02:00,
2013-04-22 12:07:00,80.4,49.5,30.00,East,90,0.0,4.9,34,0.00,,,0.00,0.00,VWS V14.01,2013-04-22 19:07:00,
2013-04-22 12:12:00,80.8,49.0,30.00,ENE,68,2.7,5.8,33,0.00,,,0.00,0.00,VWS V14.01,2013-04-22 19:12:00,
2013-04-22 12:15:00,81.1,49.3,30.00,North,0,3.1,5.8,33,0.00,,,0.00,0.00,VWS V14.01,2013-04-22 19:15:00,
2013-04-22 12:17:00,81.9,49.1,30.00,ENE,68,3.8,3.8,32,0.00,,,0.00,0.00,VWS V14.01,2013-04-22 19:17:00,
2013-04-22 12:22:00,81.5,48.8,30.00,East,90,1.3,4.3,32,0.00,,,0.00,0.00,VWS V14.01,2013-04-22 19:22:00,
2013-04-22 12:27:00,82.0,50.1,30.00,North,0,3.1,4.9,33,0.00,,,0.00,0.00,VWS V14.01,2013-04-22 19:27:00,
2013-04-22 12:30:00,82.4,49.6,30.00,NE,45,3.6,4.9,32,0.00,,,0.00,0.00,VWS V14.01,2013-04-22 19:30:00,
2013-04-22 12:32:00,82.6,49.8,30.00,East,90,2.5,3.6,32,0.00,,,0.00,0.00,VWS V14.01,2013-04-22 19:32:00,
2013-04-22 12:37:00,82.8,49.1,30.00,East,90,3.4,3.6,31,0.00,,,0.00,0.00,VWS V14.01,2013-04-22 19:37:00,
2013-04-22 12:42:00,82.0,48.5,30.00,ENE,68,3.8,3.8,31,0.00,,,0.00,0.00,VWS V14.01,2013-04-22 19:42:00,
2013-04-22 12:45:00,82.0,47.6,30.00,East,90,3.4,4.0,30,0.00,,,0.00,0.00,VWS V14.01,2013-04-22 19:45:00,
2013-04-22 12:47:00,81.9,46.5,30.00,NE,45,4.3,4.3,29,0.00,,,0.00,0.00,VWS V14.01,2013-04-22 19:47:00,
2013-04-22 12:52:00,82.2,46.8,30.00,East,90,0.0,4.3,29,0.00,,,0.00,0.00,VWS V14.01,2013-04-22 19:52:00,
2013-04-22 12:57:00,83.8,49.1,29.97,NE,45,2.0,4.3,30,0.00,,,0.00,0.00,VWS V14.01,2013-04-22 19:57:00,
2013-04-22 13:00:00,84.0,49.3,29.97,North,0,0.0,4.3,30,0.00,,,0.00,0.00,VWS V14.01,2013-04-22 20:00:00,
2013-04-22 13:02:00,84.7,49.0,29.97,North,0,0.0,0.0,29,0.00,,,0.00,0.00,VWS V14.01,2013-04-22 20:02:00,
2013-04-22 13:07:00,84.6,44.9,29.97,NNE,22,1.1,4.7,25,0.00,,,0.00,0.00,VWS V14.01,2013-04-22 20:07:00,
2013-04-22 13:12:00,84.7,45.1,29.97,ENE,68,1.6,4.7,25,0.00,,,0.00,0.00,VWS V14.01,2013-04-22 20:12:00,
2013-04-22 13:15:00,85.3,46.5,29.97,North,0,3.4,4.7,26,0.00,,,0.00,0.00,VWS V14.01,2013-04-22 20:15:00,
2013-04-22 13:17:00,85.1,45.4,29.97,East,90,2.5,3.4,25,0.00,,,0.00,0.00,VWS V14.01,2013-04-22 20:17:00,
2013-04-22 13:22:00,84.7,44.0,29.97,NNE,22,3.4,3.4,24,0.00,,,0.00,0.00,VWS V14.01,2013-04-22 20:22:00,
2013-04-22 13:27:00,84.6,42.7,29.97,East,90,2.2,4.7,23,0.00,,,0.00,0.00,VWS V14.01,2013-04-22 20:27:00,
2013-04-22 13:30:00,84.9,43.0,29.97,SE,135,3.1,4.7,23,0.00,,,0.00,0.00,VWS V14.01,2013-04-22 20:30:00,
2013-04-22 13:32:00,83.5,50.5,29.97,SSW,202,4.0,4.0,32,0.00,,,0.00,0.00,VWS V14.01,2013-04-22 20:32:00,
2013-04-22 13:37:00,81.3,51.1,29.97,SW,225,4.3,8.1,35,0.00,,,0.00,0.00,VWS V14.01,2013-04-22 20:37:00,
2013-04-22 13:42:00,81.9,51.5,29.97,NNW,338,2.5,8.1,35,0.00,,,0.00,0.00,VWS V14.01,2013-04-22 20:42:00,
2013-04-22 13:45:00,82.0,51.7,29.97,SW,225,6.0,8.1,35,0.00,,,0.00,0.00,VWS V14.01,2013-04-22 20:45:00,
2013-04-22 13:47:00,81.7,52.2,29.97,SE,135,1.3,6.0,36,0.00,,,0.00,0.00,VWS V14.01,2013-04-22 20:47:00,
2013-04-22 13:53:00,80.6,51.2,29.97,SSW,202,8.1,8.1,36,0.00,,,0.00,0.00,VWS V14.01,2013-04-22 20:53:00,
2013-04-22 13:58:00,77.9,51.7,29.97,SE,135,7.6,9.6,40,0.00,,,0.00,0.00,VWS V14.01,2013-04-22 20:58:00,
2013-04-22 14:00:00,77.7,53.5,29.97,SSE,158,3.4,9.6,43,0.00,,,0.00,0.00,VWS V14.01,2013-04-22 21:00:00,
2013-04-22 14:03:00,77.0,52.8,29.97,South,180,4.9,6.5,43,0.00,,,0.00,0.00,VWS V14.01,2013-04-22 21:03:00,
2013-04-22 14:08:00,75.0,52.3,29.97,South,180,8.1,13.2,45,0.00,,,0.00,0.00,VWS V14.01,2013-04-22 21:08:00,
2013-04-22 14:13:00,74.5,52.4,29.97,SW,225,8.5,15.2,46,0.00,,,0.00,0.00,VWS V14.01,2013-04-22 21:13:00,
2013-04-22 14:15:00,74.5,53.0,29.97,South,180,13.0,15.2,47,0.00,,,0.00,0.00,VWS V14.01,2013-04-22 21:15:00,
2013-04-22 14:18:00,74.8,52.7,29.97,SE,135,8.1,13.2,46,0.00,,,0.00,0.00,VWS V14.01,2013-04-22 21:18:00,
2013-04-22 14:23:00,74.5,53.5,29.97,South,180,6.0,13.2,48,0.00,,,0.00,0.00,VWS V14.01,2013-04-22 21:23:00,
2013-04-22 14:28:00,73.6,52.7,29.97,SE,135,8.5,15.4,48,0.00,,,0.00,0.00,VWS V14.01,2013-04-22 21:28:00,
2013-04-22 14:30:00,73.0,54.4,29.97,South,180,10.3,15.4,52,0.00,,,0.00,0.00,VWS V14.01,2013-04-22 21:30:00,
2013-04-22 14:33:00,71.6,55.6,29.97,SSW,202,11.0,11.0,57,0.00,,,0.00,0.00,VWS V14.01,2013-04-22 21:33:00,
2013-04-22 14:38:00,71.4,56.4,29.97,North,0,12.5,17.0,59,0.00,,,0.00,0.00,VWS V14.01,2013-04-22 21:38:00,
2013-04-22 14:43:00,71.6,54.1,29.97,South,180,14.8,17.0,54,0.00,,,0.00,0.00,VWS V14.01,2013-04-22 21:43:00,
2013-04-22 14:45:00,71.6,52.5,29.97,WNW,292,19.2,19.5,51,0.00,,,0.00,0.00,VWS V14.01,2013-04-22 21:45:00,
2013-04-22 14:48:00,71.2,52.7,29.97,SE,135,10.3,19.2,52,0.00,,,0.00,0.00,VWS V14.01,2013-04-22 21:48:00,
2013-04-22 14:53:00,70.7,52.8,29.94,SE,135,14.1,19.2,53,0.00,,,0.00,0.00,VWS V14.01,2013-04-22 21:53:00,
2013-04-22 14:58:00,70.7,55.2,29.94,South,180,12.5,19.2,58,0.00,,,0.00,0.00,VWS V14.01,2013-04-22 21:58:00,
2013-04-22 15:00:00,70.3,54.9,29.94,South,180,16.6,19.2,58,0.00,,,0.00,0.00,VWS V14.01,2013-04-22 22:00:00,
2013-04-22 15:03:00,70.2,53.8,29.94,SE,135,11.2,16.6,56,0.00,,,0.00,0.00,VWS V14.01,2013-04-22 22:03:00,
2013-04-22 15:08:00,70.0,54.5,29.94,SSW,202,8.7,16.6,58,0.00,,,0.00,0.00,VWS V14.01,2013-04-22 22:08:00,
2013-04-22 15:13:00,70.2,53.3,29.94,South,180,7.8,16.6,55,0.00,,,0.00,0.00,VWS V14.01,2013-04-22 22:13:00,
2013-04-22 15:15:00,70.0,53.6,29.94,South,180,7.4,16.6,56,0.00,,,0.00,0.00,VWS V14.01,2013-04-22 22:15:00,
2013-04-22 15:18:00,69.6,53.2,29.94,SSW,202,12.5,21.5,56,0.00,,,0.00,0.00,VWS V14.01,2013-04-22 22:18:00,
2013-04-22 15:23:00,69.3,52.9,29.94,SE,135,13.0,21.5,56,0.00,,,0.00,0.00,VWS V14.01,2013-04-22 22:23:00,
2013-04-22 15:28:00,69.1,52.7,29.94,South,180,6.5,21.5,56,0.00,,,0.00,0.00,VWS V14.01,2013-04-22 22:28:00,
2013-04-22 15:30:00,68.9,52.6,29.94,SSE,158,12.8,21.5,56,0.00,,,0.00,0.00,VWS V14.01,2013-04-22 22:30:00,
2013-04-22 15:33:00,68.5,51.8,29.94,South,180,14.5,14.5,55,0.00,,,0.00,0.00,VWS V14.01,2013-04-22 22:33:00,
2013-04-22 15:38:00,68.7,50.9,29.94,SSW,202,14.1,14.5,53,0.00,,,0.00,0.00,VWS V14.01,2013-04-22 22:38:00,
2013-04-22 15:43:00,68.5,50.2,29.94,SSE,158,14.3,17.5,52,0.00,,,0.00,0.00,VWS V14.01,2013-04-22 22:43:00,
2013-04-22 15:45:00,68.4,50.1,29.94,South,180,18.1,18.1,52,0.00,,,0.00,0.00,VWS V14.01,2013-04-22 22:45:00,
2013-04-22 15:48:00,68.2,50.4,29.94,WSW,248,15.7,18.1,53,0.00,,,0.00,0.00,VWS V14.01,2013-04-22 22:48:00,
2013-04-22 15:53:00,68.4,50.6,29.91,SSW,202,10.5,23.0,53,0.00,,,0.00,0.00,VWS V14.01,2013-04-22 22:53:00,
2013-04-22 15:58:00,68.7,50.4,29.91,South,180,19.2,23.0,52,0.00,,,0.00,0.00,VWS V14.01,2013-04-22 22:58:00,
2013-04-22 16:00:00,69.1,50.7,29.91,SW,225,10.5,23.0,52,0.00,,,0.00,0.00,VWS V14.01,2013-04-22 23:00:00,
2013-04-22 16:03:00,68.9,50.6,29.91,SSW,202,13.6,19.7,52,0.00,,,0.00,0.00,VWS V14.01,2013-04-22 23:03:00,
2013-04-22 16:08:00,68.5,50.2,29.91,SSW,202,17.7,19.7,52,0.00,,,0.00,0.00,VWS V14.01,2013-04-22 23:08:00,
2013-04-22 16:13:00,68.4,51.1,29.91,SSW,202,13.9,19.7,54,0.00,,,0.00,0.00,VWS V14.01,2013-04-22 23:13:00,
2013-04-22 16:15:00,68.4,51.1,29.91,South,180,11.0,19.7,54,0.00,,,0.00,0.00,VWS V14.01,2013-04-22 23:15:00,
2013-04-22 16:18:00,68.2,51.4,29.91,SSW,202,15.2,17.7,55,0.00,,,0.00,0.00,VWS V14.01,2013-04-22 23:18:00,
2013-04-22 16:23:00,67.8,50.1,29.91,SSW,202,19.7,19.7,53,0.00,,,0.00,0.00,VWS V14.01,2013-04-22 23:23:00,
2013-04-22 16:28:00,68.0,50.2,29.91,SSW,202,10.7,20.8,53,0.00,,,0.00,0.00,VWS V14.01,2013-04-22 23:28:00,
2013-04-22 16:30:00,68.2,49.9,29.91,ESE,112,9.8,20.8,52,0.00,,,0.00,0.00,VWS V14.01,2013-04-22 23:30:00,
2013-04-22 16:33:00,67.6,50.4,29.91,SSW,202,12.1,16.3,54,0.00,,,0.00,0.00,VWS V14.01,2013-04-22 23:33:00,
2013-04-22 16:39:00,68.0,50.2,29.91,South,180,12.3,23.0,53,0.00,,,0.00,0.00,VWS V14.01,2013-04-22 23:39:00,
2013-04-22 16:44:00,66.2,51.0,29.91,SSW,202,21.9,23.0,58,0.00,,,0.00,0.00,VWS V14.01,2013-04-22 23:44:00,
2013-04-22 16:45:00,66.6,50.9,29.91,SSW,202,8.5,23.0,57,0.00,,,0.00,0.00,VWS V14.01,2013-04-22 23:45:00,
2013-04-22 16:49:00,66.0,52.2,29.91,South,180,22.6,22.6,61,0.00,,,0.00,0.00,VWS V14.01,2013-04-22 23:49:00,
2013-04-22 16:54:00,66.7,50.6,29.88,SSW,202,17.9,22.6,56,0.00,,,0.00,0.00,VWS V14.01,2013-04-22 23:54:00,
2013-04-22 16:59:00,67.6,49.9,29.88,SSW,202,5.8,22.6,53,0.00,,,0.00,0.00,VWS V14.01,2013-04-22 23:59:00,
2013-04-22 17:00:00,67.6,50.9,29.88,SSW,202,17.0,22.6,55,0.00,,,0.00,0.00,VWS V14.01,2013-04-23 00:00:00,
2013-04-22 17:04:00,67.8,49.6,29.88,South,180,17.0,17.0,52,0.00,,,0.00,0.00,VWS V14.01,2013-04-23 00:04:00,
2013-04-22 17:09:00,67.8,49.6,29.88,SW,225,11.9,17.0,52,0.00,,,0.00,0.00,VWS V14.01,2013-04-23 00:09:00,
2013-04-22 17:14:00,67.6,49.4,29.88,SSW,202,9.0,17.0,52,0.00,,,0.00,0.00,VWS V14.01,2013-04-23 00:14:00,
2013-04-22 17:15:00,67.8,49.6,29.88,South,180,12.8,17.0,52,0.00,,,0.00,0.00,VWS V14.01,2013-04-23 00:15:00,
2013-04-22 17:19:00,66.9,50.2,29.88,SSW,202,16.8,16.8,55,0.00,,,0.00,0.00,VWS V14.01,2013-04-23 00:19:00,
2013-04-22 17:24:00,66.6,49.9,29.91,SSE,158,16.8,16.8,55,0.00,,,0.00,0.00,VWS V14.01,2013-04-23 00:24:00,
2013-04-22 17:29:00,66.9,49.8,29.91,SSE,158,13.9,16.8,54,0.00,,,0.00,0.00,VWS V14.01,2013-04-23 00:29:00,
2013-04-22 17:30:00,66.2,50.1,29.91,WSW,248,11.0,16.8,56,0.00,,,0.00,0.00,VWS V14.01,2013-04-23 00:30:00,
2013-04-22 17:34:00,66.6,50.4,29.91,South,180,9.2,19.7,56,0.00,,,0.00,0.00,VWS V14.01,2013-04-23 00:34:00,
2013-04-22 17:39:00,66.0,50.8,29.88,SSW,202,8.5,19.7,58,0.00,,,0.00,0.00,VWS V14.01,2013-04-23 00:39:00,
2013-04-22 17:44:00,64.2,53.0,29.88,SW,225,8.5,19.7,67,0.00,,,0.00,0.00,VWS V14.01,2013-04-23 00:44:00,
2013-04-22 17:45:00,64.2,53.0,29.88,South,180,15.4,19.7,67,0.00,,,0.00,0.00,VWS V14.01,2013-04-23 00:45:00,
2013-04-22 17:49:00,63.9,53.1,29.88,South,180,8.1,21.9,68,0.00,,,0.00,0.00,VWS V14.01,2013-04-23 00:49:00,
2013-04-22 17:54:00,62.6,53.1,29.88,South,180,13.4,23.7,71,0.00,,,0.00,0.00,VWS V14.01,2013-04-23 00:54:00,
2013-04-22 17:59:00,63.0,53.0,29.88,South,180,21.0,24.6,70,0.00,,,0.00,0.00,VWS V14.01,2013-04-23 00:59:00,
2013-04-22 18:00:00,63.1,53.2,29.88,South,180,21.0,24.6,70,0.00,,,0.00,0.00,VWS V14.01,2013-04-23 01:00:00,
2013-04-22 18:04:00,62.2,53.5,29.88,South,180,13.2,23.9,73,0.00,,,0.00,0.00,VWS V14.01,2013-04-23 01:04:00,
2013-04-22 18:09:00,62.6,52.7,29.88,SSW,202,11.0,23.9,70,0.00,,,0.00,0.00,VWS V14.01,2013-04-23 01:09:00,
2013-04-22 18:14:00,61.7,53.3,29.88,South,180,12.5,24.2,74,0.00,,,0.00,0.00,VWS V14.01,2013-04-23 01:14:00,
2013-04-22 18:15:00,61.7,53.0,29.88,South,180,23.5,24.2,73,0.00,,,0.00,0.00,VWS V14.01,2013-04-23 01:15:00,
2013-04-22 18:19:00,62.6,52.3,29.88,SSE,158,13.0,23.5,69,0.00,,,0.00,0.00,VWS V14.01,2013-04-23 01:19:00,
2013-04-22 18:24:00,61.3,52.6,29.88,SSW,202,14.5,23.5,73,0.00,,,0.00,0.00,VWS V14.01,2013-04-23 01:24:00,
2013-04-22 18:29:00,62.6,51.9,29.88,SSW,202,14.8,23.5,68,0.00,,,0.00,0.00,VWS V14.01,2013-04-23 01:29:00,
2013-04-22 18:30:00,62.6,51.5,29.88,SW,225,7.6,23.5,67,0.00,,,0.00,0.00,VWS V14.01,2013-04-23 01:30:00,
2013-04-22 18:34:00,63.0,51.0,29.88,SW,225,5.8,16.1,65,0.00,,,0.00,0.00,VWS V14.01,2013-04-23 01:34:00,
2013-04-22 18:39:00,63.5,50.7,29.88,SSW,202,17.7,17.7,63,0.00,,,0.00,0.00,VWS V14.01,2013-04-23 01:39:00,
2013-04-22 18:44:00,64.2,49.6,29.88,SSW,202,17.2,21.9,59,0.00,,,0.00,0.00,VWS V14.01,2013-04-23 01:44:00,
2013-04-22 18:45:00,64.6,50.0,29.88,SSW,202,13.2,21.9,59,0.00,,,0.00,0.00,VWS V14.01,2013-04-23 01:45:00,
2013-04-22 18:49:00,63.7,50.4,29.88,SW,225,15.2,19.7,62,0.00,,,0.00,0.00,VWS V14.01,2013-04-23 01:49:00,
2013-04-22 18:54:00,62.6,51.1,29.88,SSW,202,20.1,20.1,66,0.00,,,0.00,0.00,VWS V14.01,2013-04-23 01:54:00,
2013-04-22 18:59:00,61.9,51.2,29.88,SSW,202,7.8,23.0,68,0.00,,,0.00,0.00,VWS V14.01,2013-04-23 01:59:00,
2013-04-22 19:00:00,62.2,50.8,29.88,SSW,202,11.0,23.0,66,0.00,,,0.00,0.00,VWS V14.01,2013-04-23 02:00:00,
2013-04-22 19:04:00,63.1,50.3,29.88,South,180,10.1,20.1,63,0.00,,,0.00,0.00,VWS V14.01,2013-04-23 02:04:00,
2013-04-22 19:09:00,63.5,49.8,29.91,SSE,158,8.1,20.1,61,0.00,,,0.00,0.00,VWS V14.01,2013-04-23 02:09:00,
2013-04-22 19:14:00,63.9,49.3,29.91,SSE,158,6.3,20.1,59,0.00,,,0.00,0.00,VWS V14.01,2013-04-23 02:14:00,
2013-04-22 19:15:00,63.9,49.7,29.91,South,180,13.0,20.1,60,0.00,,,0.00,0.00,VWS V14.01,2013-04-23 02:15:00,
2013-04-22 19:19:00,63.9,49.3,29.91,SSW,202,10.3,13.0,59,0.00,,,0.00,0.00,VWS V14.01,2013-04-23 02:19:00,
2013-04-22 19:24:00,63.9,48.8,29.91,SE,135,7.8,13.0,58,0.00,,,0.00,0.00,VWS V14.01,2013-04-23 02:24:00,
2013-04-22 19:29:00,64.2,48.7,29.91,SSW,202,8.5,13.0,57,0.00,,,0.00,0.00,VWS V14.01,2013-04-23 02:29:00,
2013-04-22 19:30:00,64.2,48.7,29.91,SSW,202,5.6,13.0,57,0.00,,,0.00,0.00,VWS V14.01,2013-04-23 02:30:00,
2013-04-22 19:34:00,64.4,48.4,29.91,SW,225,6.5,10.5,56,0.00,,,0.00,0.00,VWS V14.01,2013-04-23 02:34:00,
2013-04-22 19:39:00,64.8,47.8,29.94,SW,225,2.9,10.5,54,0.00,,,0.00,0.00,VWS V14.01,2013-04-23 02:39:00,
2013-04-22 19:44:00,66.9,46.6,29.94,SSE,158,4.9,13.2,48,0.00,,,0.00,0.00,VWS V14.01,2013-04-23 02:44:00,
2013-04-22 19:45:00,66.9,46.6,29.94,SSW,202,2.7,13.2,48,0.00,,,0.00,0.00,VWS V14.01,2013-04-23 02:45:00,
2013-04-22 19:49:00,67.1,46.8,29.94,SSW,202,6.0,10.5,48,0.00,,,0.00,0.00,VWS V14.01,2013-04-23 02:49:00,
2013-04-22 19:54:00,67.5,47.1,29.94,South,180,4.3,10.5,48,0.00,,,0.00,0.00,VWS V14.01,2013-04-23 02:54:00,
2013-04-22 19:59:00,68.2,46.6,29.94,SSW,202,4.3,10.5,46,0.00,,,0.00,0.00,VWS V14.01,2013-04-23 02:59:00,
2013-04-22 20:00:00,68.2,46.6,29.94,SSW,202,4.3,10.5,46,0.00,,,0.00,0.00,VWS V14.01,2013-04-23 03:00:00,
2013-04-22 20:04:00,63.1,50.3,29.94,SW,225,6.3,11.9,63,0.00,,,0.00,0.00,VWS V14.01,2013-04-23 03:04:00,
2013-04-22 20:09:00,61.9,50.4,29.94,SSW,202,10.7,14.8,66,0.00,,,0.00,0.00,VWS V14.01,2013-04-23 03:09:00,
2013-04-22 20:14:00,60.6,51.2,29.94,SSW,202,4.9,14.8,71,0.00,,,0.00,0.00,VWS V14.01,2013-04-23 03:14:00,
2013-04-22 20:15:00,60.6,51.2,29.94,SW,225,3.4,14.8,71,0.00,,,0.00,0.00,VWS V14.01,2013-04-23 03:15:00,
2013-04-22 20:19:00,60.4,51.0,29.94,SSW,202,3.4,6.5,71,0.00,,,0.00,0.00,VWS V14.01,2013-04-23 03:19:00,
2013-04-22 20:24:00,60.6,51.2,29.94,South,180,2.2,8.5,71,0.00,,,0.00,0.00,VWS V14.01,2013-04-23 03:24:00,
2013-04-22 20:29:00,60.3,52.0,29.94,SSW,202,2.5,8.5,74,0.00,,,0.00,0.00,VWS V14.01,2013-04-23 03:29:00,
2013-04-22 20:30:00,60.3,52.0,29.94,SSW,202,2.5,8.5,74,0.00,,,0.00,0.00,VWS V14.01,2013-04-23 03:30:00,
2013-04-22 20:34:00,60.3,51.2,29.94,SSW,202,2.7,3.8,72,0.00,,,0.00,0.00,VWS V14.01,2013-04-23 03:34:00,
2013-04-22 20:39:00,60.1,51.0,29.94,SSW,202,0.0,3.8,72,0.00,,,0.00,0.00,VWS V14.01,2013-04-23 03:39:00,
2013-04-22 20:45:00,59.4,51.5,29.94,SSW,202,2.7,3.8,75,0.00,,,0.00,0.00,VWS V14.01,2013-04-23 03:45:00,
2013-04-22 20:50:00,59.5,50.9,29.94,SSW,202,0.0,2.9,73,0.00,,,0.00,0.00,VWS V14.01,2013-04-23 03:50:00,
2013-04-22 20:55:00,59.4,51.5,29.97,SSW,202,2.0,2.9,75,0.00,,,0.00,0.00,VWS V14.01,2013-04-23 03:55:00,
2013-04-22 21:00:00,59.4,51.5,29.97,SSW,202,0.0,3.1,75,0.00,,,0.00,0.00,VWS V14.01,2013-04-23 04:00:00,
2013-04-22 21:02:00,59.2,51.6,29.97,SSW,202,2.5,2.7,76,0.00,,,0.00,0.00,VWS V14.01,2013-04-23 04:02:00,
2013-04-22 21:03:00,59.2,51.6,29.97,SSW,202,3.1,3.1,76,0.00,,,0.00,0.00,VWS V14.01,2013-04-23 04:03:00,
2013-04-22 21:04:00,59.2,51.3,29.97,SW,225,3.1,3.1,75,0.00,,,0.00,0.00,VWS V14.01,2013-04-23 04:04:00,
2013-04-22 21:09:00,58.8,50.9,29.97,SW,225,0.0,3.1,75,0.00,,,0.00,0.00,VWS V14.01,2013-04-23 04:09:00,
2013-04-22 21:14:00,58.5,50.9,29.97,SW,225,0.0,3.1,76,0.00,,,0.00,0.00,VWS V14.01,2013-04-23 04:14:00,
2013-04-22 21:15:00,58.5,50.9,29.97,SW,225,0.0,3.1,76,0.00,,,0.00,0.00,VWS V14.01,2013-04-23 04:15:00,
2013-04-22 21:20:00,58.1,50.9,29.97,SW,225,0.0,0.0,77,0.00,,,0.00,0.00,VWS V14.01,2013-04-23 04:20:00,
2013-04-22 21:25:00,57.9,50.8,29.97,SW,225,0.0,0.0,77,0.00,,,0.00,0.00,VWS V14.01,2013-04-23 04:25:00,
2013-04-22 21:30:00,57.6,50.1,29.97,SW,225,0.0,0.0,76,0.00,,,0.00,0.00,VWS V14.01,2013-04-23 04:30:00,
2013-04-22 21:35:00,57.4,51.3,29.97,SW,225,0.0,0.0,80,0.00,,,0.00,0.00,VWS V14.01,2013-04-23 04:35:00,
2013-04-22 21:40:00,57.4,50.2,29.94,SW,225,0.0,0.0,77,0.00,,,0.00,0.00,VWS V14.01,2013-04-23 04:40:00,
2013-04-22 21:45:00,57.0,50.6,29.94,SW,225,0.0,0.0,79,0.00,,,0.00,0.00,VWS V14.01,2013-04-23 04:45:00,
2013-04-22 21:50:00,57.0,51.9,29.94,SW,225,0.0,0.0,83,0.00,,,0.00,0.00,VWS V14.01,2013-04-23 04:50:00,
2013-04-22 21:55:00,56.8,51.1,29.94,SW,225,0.0,0.0,81,0.00,,,0.00,0.00,VWS V14.01,2013-04-23 04:55:00,
2013-04-22 22:00:00,56.7,52.8,29.94,SW,225,0.0,0.0,87,0.00,,,0.00,0.00,VWS V14.01,2013-04-23 05:00:00,
2013-04-22 22:05:00,56.5,51.4,29.94,SW,225,0.0,0.0,83,0.00,,,0.00,0.00,VWS V14.01,2013-04-23 05:05:00,
2013-04-22 22:10:00,56.5,51.7,29.97,SW,225,0.0,0.0,84,0.00,,,0.00,0.00,VWS V14.01,2013-04-23 05:10:00,
2013-04-22 22:15:00,56.1,51.7,29.97,SW,225,0.0,0.0,85,0.00,,,0.00,0.00,VWS V14.01,2013-04-23 05:15:00,
2013-04-22 22:20:00,55.9,51.5,29.97,SW,225,0.0,0.0,85,0.00,,,0.00,0.00,VWS V14.01,2013-04-23 05:20:00,
2013-04-22 22:25:00,55.9,51.5,29.94,SSW,202,0.0,0.0,85,0.00,,,0.00,0.00,VWS V14.01,2013-04-23 05:25:00,
2013-04-22 22:30:00,55.8,51.6,29.94,SSW,202,0.0,0.0,86,0.00,,,0.00,0.00,VWS V14.01,2013-04-23 05:30:00,
2013-04-22 22:35:00,55.9,52.4,29.94,SSW,202,0.0,0.0,88,0.00,,,0.00,0.00,VWS V14.01,2013-04-23 05:35:00,
2013-04-22 22:40:00,55.8,52.6,29.94,SSW,202,0.0,0.0,89,0.00,,,0.00,0.00,VWS V14.01,2013-04-23 05:40:00,
2013-04-22 22:45:00,55.8,52.0,29.94,SSW,202,0.0,0.0,87,0.00,,,0.00,0.00,VWS V14.01,2013-04-23 05:45:00,
2013-04-22 22:50:00,55.8,53.2,29.94,SSW,202,0.0,0.0,91,0.00,,,0.00,0.00,VWS V14.01,2013-04-23 05:50:00,
2013-04-22 22:55:00,55.8,52.9,29.94,SSW,202,0.0,0.0,90,0.00,,,0.00,0.00,VWS V14.01,2013-04-23 05:55:00,
2013-04-22 23:00:00,55.6,52.7,29.94,SSW,202,0.0,0.0,90,0.00,,,0.00,0.00,VWS V14.01,2013-04-23 06:00:00,
2013-04-22 23:05:00,55.6,52.1,29.94,SSW,202,0.0,2.0,88,0.00,,,0.00,0.00,VWS V14.01,2013-04-23 06:05:00,
2013-04-22 23:10:00,55.4,52.2,29.94,SSW,202,0.0,2.0,89,0.00,,,0.00,0.00,VWS V14.01,2013-04-23 06:10:00,
2013-04-22 23:15:00,55.4,52.2,29.94,SSW,202,0.0,0.0,89,0.00,,,0.00,0.00,VWS V14.01,2013-04-23 06:15:00,
2013-04-22 23:20:00,55.2,52.6,29.94,SSW,202,1.1,2.5,91,0.00,,,0.00,0.00,VWS V14.01,2013-04-23 06:20:00,
2013-04-22 23:25:00,55.2,52.6,29.94,SSW,202,1.6,2.5,91,0.00,,,0.00,0.00,VWS V14.01,2013-04-23 06:25:00,
2013-04-22 23:30:00,55.0,52.5,29.94,SSW,202,2.0,2.0,91,0.00,,,0.00,0.00,VWS V14.01,2013-04-23 06:30:00,
2013-04-22 23:35:00,55.4,51.6,29.94,SSW,202,0.0,2.5,87,0.00,,,0.00,0.00,VWS V14.01,2013-04-23 06:35:00,
2013-04-22 23:40:00,55.4,51.3,29.91,SSW,202,1.6,2.5,86,0.00,,,0.00,0.00,VWS V14.01,2013-04-23 06:40:00,
2013-04-22 23:45:00,55.4,51.6,29.91,SSW,202,0.0,0.9,87,0.00,,,0.00,0.00,VWS V14.01,2013-04-23 06:45:00,
2013-04-22 23:50:00,55.6,52.4,29.91,SSW,202,0.0,0.9,89,0.00,,,0.00,0.00,VWS V14.01,2013-04-23 06:50:00,
2013-04-22 23:55:00,55.6,51.8,29.94,SSW,202,0.0,2.0,87,0.00,,,0.00,0.00,VWS V14.01,2013-04-23 06:55:00,